sat.trackr.live / text

‹ back to catalog

STARLINK-34864

NORAD 65330 · 2025-189H

PAYLOAD ACTIVE UNKNOWN

§ Identity

Operator
Country
US
Launch date
2025-08-27
Launch site
AFETR
Launch vehicle
Mass (kg)
RCS (m²)

Purposes: comms

External: N2YO · Heavens-Above · Gunter

§ Orbital elements

Epoch: 2026-09-20T13:58:33.326688Z

Period
94.01 min
Inclination
53.1587°
Eccentricity
0.0001220
Mean motion
15.31695449 rev/d
Perigee alt
469.9 km
Apogee alt
471.6 km
Semi-major
6,848.9 km
B*
7.3269e-5
RAAN
20.2145°
Arg perigee
104.3609°
Mean anomaly
255.7528°
Rev number
6,096

§ Raw data

STARLINK-348641 65330U 25189H   26263.58233017  .00001909  00000+0  73269-4 0  99992 65330  53.1587  20.2145 0001220 104.3609 255.7528 15.31695449 60962

JSON: /api/v1/satellites/65330 · /tle

For live sub-satellite position, see the globe view (requires WebGL).

§ Visibility from observer

Set your observer location to see the next 7 days of passes ≥ 10°. The values pass through the URL so the page stays shareable.

No JS? Fill the form by hand. The geolocation button needs JavaScript.